Location: Chandolas
(44.4033°N, 4.2533°E)
Time: 05:40:13
(UTC+00:00)

Cosmos 2360 Rocket - Pass Details

Date: 15 November 2019
Orbit: 832 x 847 km, 71.0° (Epoch: 08 December)

Event Time Altitude Azimuth Distance (km) Brightness Sun altitude
Exits shadow 05:19:37 - 338° (NNW) 3,390 5.0 -14.1°
Reaches altitude 10° 05:22:07 10° 345° (NNW) 2,479 4.4 -13.7°
Maximum altitude 05:27:35 46° 58° (ENE) 1,130 3.2 -12.8°
Drops below altitude 10° 05:33:00 10° 131° (SE) 2,464 5.7 -11.8°
Sets 05:35:33 0° 138° (SE) 3,394 6.4 -11.4°
